Home > Weather > Andernach > Past weeks

Flag for Germany Past Weather in Andernach, Rhineland-Palatinate, Germany — Yesterday and Last 2 Weeks

Now
54 °F

Cool.


Feels Like: 52 °F
Forecast: 50 / 69 °F
Wind: 7 mph from Southwest

Location: Buechel

Current Time: Jun 26, 2016 at 10:11:30 AM

Latest Report: Jun 26, 2016 at 9:20 AM


Visibility: N/A

Pressure: 30.09 "Hg

Humidity: 94%

Dew Point: 52 °F

Location of AndernachLocation

Past Weather in Andernach — Graph

°F

Andernach Temperature Yesterday

Maximum temperature yesterday: 64 °F (at 12:20 AM)
Minimum temperature yesterday: 52 °F (at 10:20 PM)
Average temperature yesterday: 59 °F

High & Low Weather Summary for the Past Weeks

 TemperatureHumidityPressure
High86 °F (Jun 23, 3:20 PM)100% (Jun 13, 12:20 AM)30.27 "Hg (Jun 13, 12:20 AM)
Low46 °F (Jun 16, 5:20 AM)49% (Jun 23, 3:20 PM)29.50 "Hg (Jun 14, 7:20 PM)
Average59 °F86%29.91 "Hg
* Reported Jun 11 8:20 AM — Jun 26 8:20 AM, Andernach, Weather by CustomWeather, © 2016

Note: Actual official high and low records may vary slightly from our data, if they occured in-between our weather recording intervals... More about our weather records

Advertising

Andernach Weather History for the Previous 24 Hours

Scroll right to see more
 ConditionsComfort  
Time TempWeatherWind HumidityBarometerVisibility
8:20 AM
Sun, Jun 26
52 °FCool.7 mph94%30.09 "HgN/A
7:20 AM50 °FCool.3 mph100%30.07 "Hg4 mi
6:20 AM48 °FCool.6 mph100%30.07 "Hg0 mi
5:20 AM48 °FCool.5 mph100%30.07 "Hg0 mi
4:20 AM50 °FCool.5 mph94%30.07 "Hg0 mi
3:20 AM50 °FCool.5 mph100%30.07 "Hg1 mi
2:20 AM50 °FCool.5 mph100%30.07 "Hg1 mi
1:20 AM52 °FCool.8 mph100%30.07 "Hg2 mi
12:20 AM52 °FCool.6 mph100%30.09 "HgN/A
11:20 PM
Sat, Jun 25
52 °FCool.7 mph100%30.07 "Hg4 mi
10:20 PM52 °FCool.3 mph100%30.07 "Hg5 mi
9:20 PM54 °FCool.7 mph94%30.04 "HgN/A
8:20 PM55 °FCool.5 mph88%30.04 "HgN/A
7:20 PM55 °FCool.8 mph88%30.01 "HgN/A
6:20 PM55 °FCool.12 mph94%30.01 "HgN/A
5:20 PM57 °FCool.8 mph94%30.01 "Hg5 mi
4:20 PM57 °FCool.8 mph94%29.98 "Hg4 mi
3:20 PM55 °FCool.12 mph94%29.98 "Hg2 mi
2:20 PM57 °FCool.13 mph94%29.98 "Hg4 mi
1:20 PM59 °FCool.10 mph88%29.95 "Hg5 mi
12:20 PM59 °FCool.10 mph94%29.95 "Hg3 mi
11:20 AM59 °FCool.12 mph94%29.95 "Hg2 mi
10:20 AM61 °FCool.9 mph94%29.95 "Hg3 mi
Weather by CustomWeather, © 2016

See weather overviewHow to use our weather pages